Lid_Strength_Index
11 10 10 11 11 10 12 13 16 13 12 10 9 8 7 6 6 7 6 5 4 4 4 3 3 3 2 2 2 2 2 2 2 2 1 1 1 1 1 1 1 1 1 1
13 10 10 11 10 12 12 9 10 11 12 7 6 6 7 7 7 6 5 5 4 4 3 3 3 3 2 2 2 2 2 2 2 2 2 2 2 2 1 1 1 1 1 1
16 11 11 14 11 11 11 9 9 11 8 7 7 7 7 6 6 5 5 5 4 4 3 3 3 2 3 2 2 2 2 2 2 2 2 2 2 2 2 2 2 2 2 2
16 14 19 10 7 7 9 8 7 7 7 7 7 6 5 5 5 5 5 4 4 3 3 3 2 2 2 2 2 2 2 2 2 2 2 2 2 2 2 2 2 2 2 2
17 16 14 11 9 9 10 10 7 8 7 6 5 5 6 4 4 4 4 3 3 3 3 3 3 4 4 3 2 2 3 2 2 2 2 2 2 2 2 2 2 2 2 2
14 17 19 10 7 6 7 11 6 6 7 7 6 10 8 4 4 4 3 3 3 3 4 4 6 6 6 5 5 3 3 2 2 2 2 2 2 2 2 2 2 5 11 12
14 16 12 8 6 6 13 13 7 6 6 6 8 6 5 4 4 3 3 4 4 4 5 6 8 8 8 8 7 8 6 3 4 3 2 2 2 2 2 8 13 15 16 16
13 15 16 6 6 10 9 7 6 6 6 6 5 5 4 4 4 4 5 4 5 6 6 7 9 9 10 10 9 8 7 5 7 8 7 9 9 11 11 13 15 16 17 17
11 11 6 5 7 5 5 6 6 5 5 5 5 5 4 4 4 5 6 7 7 8 8 9 10 10 11 11 9 10 10 11 11 11 12 11 12 13 14 15 16 17 17 18
10 8 6 7 5 5 5 5 5 5 5 5 5 4 5 5 7 8 9 10 10 11 11 12 11 11 11 11 10 11 13 14 15 15 15 15 14 14 15 16 17 18 18 19
9 8 8 7 6 5 5 5 6 5 5 6 6 6 7 9 10 10 11 12 12 13 13 13 13 13 12 11 12 13 14 15 16 16 16 17 17 18 18 17 17 18 18 18
12 8 8 8 6 5 6 6 6 7 7 7 7 8 9 11 12 12 13 13 14 14 14 14 14 13 12 12 13 14 15 16 17 17 17 17 17 18 17 17 16 16 16 17
7 6 6 6 6 7 7 7 7 8 9 10 10 10 11 13 14 14 15 15 15 15 15 14 14 14 13 13 13 14 16 16 17 17 17 18 18 19 20 18 17 17 17 17
7 7 6 7 9 8 8 8 8 10 11 12 12 13 13 14 15 15 16 15 15 15 15 15 15 14 13 14 14 15 15 16 17 17 18 18 19 20 20 20 21 20 18 18
9 7 8 8 9 9 9 9 11 12 13 14 14 15 15 16 17 17 16 15 15 16 16 16 16 15 14 14 15 15 16 16 16 16 17 17 17 18 19 20 21 20 20 20
10 8 9 10 10 11 11 11 12 13 14 14 15 15 15 15 16 17 17 17 18 18 17 17 17 15 14 15 15 16 16 16 16 16 17 18 18 19 20 20 20 20 20 20
12 13 12 12 12 13 13 13 13 14 14 14 14 14 15 16 16 17 17 18 18 18 18 18 18 17 15 15 15 16 17 17 16 17 17 17 18 19 20 20 21 20 20 20
12 12 13 13 13 14 15 15 15 15 17 17 17 17 18 19 19 19 19 19 19 20 19 18 17 17 17 16 16 16 17 17 17 18 18 18 18 18 19 19 20 21 21 21
13 14 14 14 14 15 16 16 17 17 17 18 18 19 19 19 20 20 20 21 21 22 21 19 17 17 17 17 16 17 18 18 18 18 19 20 20 20 20 20 21 21 21 22
15 15 15 16 15 16 17 17 17 18 18 18 19 20 21 21 19 20 21 22 21 21 20 20 18 19 18 18 18 18 19 19 19 20 20 20 20 21 21 21 21 21 22 22
16 16 17 17 18 17 17 17 18 19 19 19 20 21 21 21 21 20 21 22 21 20 20 20 20 19 19 18 19 19 19 20 20 20 20 21 21 21 21 21 21 22 22 22
16 17 17 18 18 18 18 18 18 19 19 19 19 19 19 20 21 21 22 21 20 20 21 20 20 20 19 19 19 19 20 20 20 21 21 21 21 21 22 22 22 22 22 22
16 16 17 18 18 18 18 19 19 19 19 19 19 19 19 20 20 21 23 21 21 22 21 21 21 20 20 19 19 19 19 20 20 21 21 21 22 22 22 23 22 22 23 23
15 16 16 16 16 17 18 18 18 18 19 18 19 19 18 19 19 18 19 20 20 22 22 21 22 21 20 19 20 21 22 22 21 21 21 22 21 21 21 23 22 21 22 22
15 15 15 15 17 17 17 17 17 17 17 17 17 17 17 18 19 19 19 19 21 19 20 23 22 21 20 20 21 20 20 21 21 21 20 20 20 20 20 20 21 22 22 22
15 16 16 16 15 15 15 14 15 15 15 17 17 17 17 17 17 17 19 19 19 19 19 19 20 20 19 19 19 19 19 19 20 19 19 19 20 19 20 21 22 22 22 23
14 14 15 15 15 16 16 16 15 16 17 17 18 17 17 17 18 18 19 17 17 17 17 17 17 18 18 18 17 17 17 18 20 20 20 19 20 20 21 22 23 23 23 24